Location: Sungai Bunut
(2.6333°N, 113.7333°E)
Time: 14:24:38
(UTC+00:00)

Altair - Pass Details

Date: 10 December 2023
Orbit: 1501 x 1682 km, 47.2° (Epoch: 24 February)

Event Time Altitude Azimuth Distance (km) Brightness Sun altitude
Rises 18:22:33 0° 195° (SSW) 4,920 10.3 -53.6°
Reaches altitude 10° 18:26:35 10° 182° (S) 3,940 9.8 -52.8°
Maximum altitude 18:34:22 25° 131° (SE) 2,927 9.2 -51.2°
Drops below altitude 10° 18:42:04 10° 80° (E) 3,913 9.9 -49.6°
Sets 18:45:59 0° 68° (ENE) 4,880 10.5 -48.8°
